Regional Weather Roundup
Issued by NWS Upton, NY

Home | Current Version | Previous Version | Text Only | Print | Product List | Glossary On
Versions: 1 2 3 4 5 6 7 8 9 10 11 12 13 14 15 16 17 18 19 20 21 22 23 24 25 26 27 28 29 30 31 32 33 34 35 36 37 38 39 40 41 42 43 44 45 46 47 48 49 50
000
ASUS41 KOKX 200705
RWROKX

REGIONAL WEATHER ROUNDUP
NATIONAL WEATHER SERVICE NEW YORK NY
300 AM EDT WED AUG 20 2014

NOTE: "FAIR" INDICATES FEW OR NO CLOUDS BELOW 12,000 FEET WITH NO
SIGNIFICANT WEATHER AND/OR OBSTRUCTIONS TO VISIBILITY.

NYZ071-072-176-178-NJZ106-104-200800-
NEW YORK CITY METRO AREA


CITY           SKY/WX    TMP DP  RH WIND       PRES   REMARKS
CENTRAL PARK   PTCLDY    70  63  78 CALM      29.98R
LAGUARDIA APRT PTCLDY    71  65  81 SW5       29.94R
KENNEDY INTL   PTCLDY    68  64  87 CALM      29.95S
NEWARK/LIBERTY PTCLDY    70  65  84 W5        29.95R
BRNX BOT. GARD   N/A     66  64  94 NE1       29.96S
TETERBORO      CLEAR     69  63  81 CALM      29.94R
$$

NYZ177-179-078>081-200800-
LONG ISLAND NEW YORK

CITY           SKY/WX    TMP DP  RH WIND       PRES   REMARKS
FARMINGDALE    CLEAR     65  63  93 N3        29.95R
ISLIP          CLEAR     64  61  90 N3        29.93S
SHIRLEY        CLEAR     59  58  96 N3        29.95S
WESTHAMPTON    CLOUDY    54  52  93 CALM      29.96S
MONTAUK POINT    N/A     61  59  93 CALM      29.97S
$$

NYZ052-065-067-200800-
HUDSON VALLEY

CITY           SKY/WX    TMP DP  RH WIND       PRES   REMARKS
WHITE PLAINS   CLEAR     63  61  93 CALM      29.95R
NEWBURGH       PTCLDY    64  63  94 CALM      29.96R
MONTGOMERY     CLOUDY    59  57  93 CALM      29.95S
POUGHKEEPSIE   CLOUDY    63  60  90 CALM      29.94R
ALBANY         MOCLDY    59  56  89 CALM      29.95S
$$

NJZ001-105-106-008-010-013-015-019>022-104-200800-
NEW JERSEY

CITY           SKY/WX    TMP DP  RH WIND       PRES   REMARKS
NEWARK/LIBERTY PTCLDY    70  65  84 W5        29.95R
TETERBORO      CLEAR     69  63  81 CALM      29.94R
CALDWELL       CLOUDY    65  61  87 CALM      29.96R
MORRISTOWN     CLOUDY    63  59  88 CALM      29.96R
SOMERVILLE     CLOUDY    66  62  87 CALM      29.93R
LINDEN         PTSUNNY   73  66  81 CALM      29.97R
SUSSEX         MOCLDY    65  61  87 CALM      29.95S
ANDOVER          N/A     64  63  96 CALM      29.96S
TRENTON        MOCLDY    68  62  81 CALM      29.94S
MILLVILLE      MOCLDY    67  64  90 CALM      29.93S
ATLANTIC CITY  MOCLDY    65  63  93 N3        29.93S
WRIGHTSTOWN    MOCLDY    65  62  93 CALM      29.92S
TOMS RIVER     MOCLDY    63  59  88 CALM      29.95R
BELMAR         MOCLDY    64  57  77 NW5       29.95R
$$

PAZ047>061-062-071-200800-
EASTERN PENNSYLVANIA

CITY           SKY/WX    TMP DP  RH WIND       PRES   REMARKS
PHILADELPHIA   CLOUDY    73  64  73 S3        29.93F
ALLENTOWN      MOCLDY    71  63  75 SW3       29.94S
SCRANTON       CLEAR     67  61  81 E3        29.94S
$$

CTZ002-004>006-009-010-012-RIZ004-006-007-MAZ004-011-015-200800-
SOUTHERN NEW ENGLAND
 IN CT

CITY           SKY/WX    TMP DP  RH WIND       PRES   REMARKS
BRADLEY INTL   PTCLDY    58  55  90 CALM      29.96R
HARTFORD       MOCLDY    61  59  93 CALM      29.96R
DANBURY        CLEAR     59  58  96 CALM      29.97S
WTRBRY/OXFORD  CLOUDY    64  61  88 CALM      29.99R VSB<1/4
BRIDGEPORT     CLEAR     66  63  90 N3        29.95R
MERIDEN        CLOUDY    62  59  90 CALM      29.96R
NEW HAVEN      CLEAR     63  60  90 CALM      29.96R
CHESTER        FOG       61  61 100 SE3       29.97S VSB 1/4
GROTON         PTCLDY    59  59 100 N3        29.96S
WILLIMANTIC    PTCLDY    56  53  90 CALM      29.98S

 IN RI

CITY           SKY/WX    TMP DP  RH WIND       PRES   REMARKS
PROVIDENCE     PTCLDY    59  56  89 W3        29.96F
BLOCK ISLAND   MOCLDY    63  59  88 CALM      29.96S
WESTERLY       PTCLDY    58  56  93 CALM      29.97R

 IN MA

CITY           SKY/WX    TMP DP  RH WIND       PRES   REMARKS
BOSTON         PTCLDY    64  56  75 SW3       29.96S
WORCESTER      PTCLDY    61  55  81 W9        29.99S
WESTFIELD      CLEAR     57  54  89 N3        29.97R
PROVINCETOWN   MOCLDY    57  54  88 MISG      29.96S
NANTUCKET      PTCLDY    57  55  93 CALM      29.95F
$$

ANZ330-335-338-340-345-350-353-355-200800-
COASTAL MARINE OBSERVATIONS


STATION/POSITION TIME  SKY/WX   TEMP    WIND        PRES    VSBY  WAVE
                                AIR SEA DIR/SP/G                  HT/PER
                 (UTC)          (F)     (DEG/KT/KT) (MB)    (MI)  (FT/S)
NY HARB ENTRANCE NOT AVBL
4S FIRE IS       NOT AVBL
23SW MTP         0700            68 69              1013.7          1/ 7
HUDSON CANYON    0700            72 73   60/ 10/ 12 1013.0          2/ 4
EXECUTION ROCKS  0700            70 72  130/  4/  6   N/A
WESTERN LI SOUND 0700            70     140/  2/  4   N/A           0
CENTRAL LI SOUND 0600            70 72  180/  2/  4   N/A           0
EASTERN LI SOUND 0600            67 68   40/  6/  8   N/A
ROBBINS REEF     0700            71     220/  5/  6   N/A
$$


>>>>>>>>>>>>>>>>>>>>>>>>>>>> KEY <<<<<<<<<<<<<<<<<<<<<<<<<<<
>                                                          <
>     SKY/WX - SKY CONDITION/PRESENT WEATHER               <
>     TMP    - TEMPERATURE IN FAHRENHEIT                   <
>     DP     - DEWPOINT IN FAHRENHEIT                      <
>     RH     - RELATIVE HUMIDITY IN PERCENT                <
>     WIND   - DIRECTION AND SPEED IN MPH                  <
>     PRES   - MEAN SEA LEVEL PRESSURE IN INCHES OF HG     <
>     WCI    - WIND CHILL INDEX                            <
>     VSB    - VISIBILITY IN MILES                         <
>     HX     - HEAT INDEX                                  <
>     TC     - TEMPERATURE IN CELSIUS                      <
>     VRB    - VARIABLE WIND DIRECTION                     <
>                                                          <
>>>>>>>>>>>>>>>>>>>>>>>>>>>> KEY <<<<<<<<<<<<<<<<<<<<<<<<<<<




USA.gov is the U.S. government's official web portal to all federal, state and local government web resources and services.